Preview of NWS' New Version of Forecast
This preview is not operational and should not be used for support decisions.

Regional Weather Roundup (RWR)

Issued by National Weather Service (NWS)

                            
000
ASUS46 KSEW 221310
RWRWA 

WASHINGTON REGIONAL WEATHER ROUNDUP
NATIONAL WEATHER SERVICE SEATTLE WA
600 AM PDT WED MAY 22 2019

NOTE:"FAIR" INDICATES FEW OR NO CLOUDS BELOW 12,000 FEET WITH NO 
SIGNIFICANT WEATHER AND/OR OBSTRUCTIONS TO VISIBILITY.

WAZ507-509-555>559-221400-
SEATTLE, TACOMA, EVERETT, AND VICINITY
  
CITY           SKY/WX    TMP DP  RH WIND       PRES   REMARKS
EVERETT        CLOUDY    54  46  74 CALM      29.97R                  
BOEING FIELD   MOCLDY    52  48  86 SE3       29.96R                  
RENTON         MOCLDY    51  49  92 SE3       29.96R FOG              
SEATAC AIRPORT PTCLDY    51  46  83 S3        29.96R                  
JBLM-MCCHORD   CLOUDY    46  46 100 CALM      29.97R                  
PUYALLUP       CLOUDY    45  45 100 CALM      29.97R                  
BREMERTON      CLOUDY    49  48  97 CALM      29.97R                  
JBLM-FT LEWIS  NOT AVBL                                               
TACOMA NARROWS CLOUDY    49  48  97 CALM      29.97R                  
$$
 
WAZ001-503-506-510-514-515-221400-
NORTH INTERIOR
  
CITY           SKY/WX    TMP DP  RH WIND       PRES   REMARKS
BELLINGHAM     FOG       48  46  93 CALM      29.96R VSB 1            
FRIDAY HARBOR  MOCLDY    55  49  80 CALM      29.97R                  
EASTSOUND      CLEAR     50  50 100 CALM      29.96R                  
PORT ANGELES   PTCLDY    45  45 100 CALM      29.97R                  
EDIZ HOOK      PTSUNNY   49  47  95 SE3       29.97R                  
PORT TOWNSEND  CLOUDY    48  48 100 CALM      29.95S                  
NAS WHIDBEY    MOCLDY    54  48  80 CALM      30.00R                  
ARLINGTON      CLOUDY    49  49 100 CALM      29.97R                  
BURLINGTON     CLOUDY    52  50  93 CALM      29.96R                  
$$
 
WAZ020-022-039-040-504-511-512-221400-
SOUTHWEST INTERIOR
  
CITY           SKY/WX    TMP DP  RH WIND       PRES   REMARKS
SHELTON        FOG       50  48  93 W6        29.95R VSB 1/2          
OLYMPIA        CLOUDY    45  44  97 CALM      29.97S FOG              
CHEHALIS       FOG       46  46 100 CALM      29.97R VSB<1/4          
KELSO          MOCLDY    46  45  96 NW3       29.98R                  
VANCOUVER      CLEAR     46  44  93 CALM      29.95R                  
SCAPPOOSE, OR  CLEAR     52  46  80 N3        29.95R                  
PORTLAND, OR   PTCLDY    51  46  83 CALM      29.96R                  
$$
 
WAZ021-516-517-221400-
WASHINGTON COAST
  
CITY           SKY/WX    TMP DP  RH WIND       PRES   REMARKS
FORKS          CLEAR     43  42  97 CALM      29.95R                  
HOQUIAM        CLOUDY    54  53  97 CALM      29.97R                  
ASTORIA, OR    CLOUDY    54  51  90 W3        29.98R                  
$$
 
WAZ019-023-024-040-567>569-221400-
CASCADE MOUNTAINS AND COLUMBIA GORGE
  
CITY           SKY/WX    TMP DP  RH WIND       PRES   REMARKS
STAMPEDE PASS  FOG       42  40  92 W6        29.95R VSB 1/4          
TROUTDALE, OR  CLOUDY    52  49  89 CALM      29.95R                  
HOOD RIVER, OR CLOUDY    50  46  87 S3        29.90R                  
THE DALLES, OR CLOUDY    57  47  69 NW15G26   29.85R                  
$$

WAZ026-027-041>044-520-521-221400-
EAST SLOPES
  
CITY           SKY/WX    TMP DP  RH WIND       PRES   REMARKS
OMAK           MOCLDY    55  40  56 N9        29.90R                  
WENATCHEE      CLOUDY    53  41  63 SW7       29.89R                  
ELLENSBURG     CLOUDY    53  42  66 NW18G25   29.88R                  
YAKIMA         CLOUDY    57  41  55 NW8       29.86R                  
SUNNYSIDE ARPT CLOUDY    60  42  51 N9G16     29.84R                  
YAKIMA TC      NOT AVBL                                               
$$

WAZ028-034-035-221400-
COLUMBIA BASIN
  
CITY           SKY/WX    TMP DP  RH WIND       PRES   REMARKS
EPHRATA        CLOUDY    59  39  47 VRB3      29.86R                  
MOSES LAKE     CLOUDY    59  42  53 N7        29.86R                  
PASCO          CLOUDY    55  50  83 N6        29.84R                  
RICHLAND ARPT  CLOUDY    55  52  90 N3        29.84R                  
HERMISTON, OR  CLOUDY    53  49  86 CALM      29.82R                  
$$

WAZ036>038-221400-
NORTHEAST WASHINGTON
  
CITY           SKY/WX    TMP DP  RH WIND       PRES   REMARKS
SPOKANE GEIGER CLOUDY    52  36  54 NE10      29.88R                  
SPOKANE FELTS  MOCLDY    54  37  52 NE5       29.88R                  
FAIRCHILD AFB  NOT AVBL                                               
COEURDALENE,ID MOCLDY    52  37  56 N13       29.89R                  
DEER PARK      CLOUDY    53  36  52 N10       29.89R                  
$$

WAZ029>033-221400-
SOUTHEAST WASHINGTON
  
CITY           SKY/WX    TMP DP  RH WIND       PRES   REMARKS
PULLMAN        CLOUDY    46  43  89 CALM      29.86R                  
LEWISTON, ID   CLOUDY    52  45  77 W3        29.84R                  
WALLA WALLA    CLOUDY    51  45  79 E7        29.84R                  
PENDLETON, OR  CLOUDY    49  46  90 SE3       29.82S                  
$$